QPF
0.00 0.00 0.01 0.01 0.01 0.00 0.01 0.01 0.00 0.00 0.00 0.00 0.00 0.00 0.00 0.00 0.00 0.00 0.00 0.00 0.00 0.00 0.00 0.01 0.06 0.11 0.04 0.00 0.01 0.00 0.00 0.00 0.00 0.00 0.00 0.00 0.00 0.00 0.00 0.00 0.00 0.00 0.00 0.00 0.00 0.00 0.00
0.00 0.00 0.00 0.01 0.01 0.00 0.00 0.00 0.00 0.00 0.00 0.00 0.00 0.00 0.00 0.00 0.00 0.00 0.00 0.00 0.00 0.00 0.01 0.03 0.05 0.04 0.01 0.00 0.00 0.00 0.00 0.00 0.00 0.00 0.00 0.00 0.00 0.00 0.00 0.00 0.00 0.00 0.00 0.00 0.00 0.00 0.00
0.00 0.00 0.00 0.01 0.00 0.01 0.00 0.00 0.00 0.00 0.00 0.00 0.00 0.00 0.01 0.01 0.01 0.00 0.00 0.00 0.00 0.00 0.03 0.01 0.01 0.00 0.00 0.01 0.00 0.00 0.00 0.00 0.00 0.00 0.00 0.00 0.00 0.00 0.00 0.00 0.00 0.00 0.00 0.00 0.00 0.00 0.00
0.00 0.01 0.00 0.00 0.00 0.01 0.01 0.00 0.00 0.00 0.00 0.00 0.00 0.00 0.01 0.04 0.02 0.01 0.01 0.01 0.01 0.02 0.04 0.03 0.01 0.00 0.00 0.01 0.00 0.00 0.00 0.00 0.00 0.00 0.00 0.00 0.00 0.00 0.00 0.00 0.00 0.00 0.00 0.00 0.00 0.00 0.00
0.00 0.00 0.00 0.00 0.00 0.00 0.00 0.00 0.00 0.00 0.00 0.00 0.00 0.00 0.00 0.00 0.03 0.02 0.01 0.01 0.00 0.01 0.02 0.01 0.00 0.00 0.00 0.00 0.00 0.00 0.00 0.00 0.00 0.00 0.00 0.00 0.00 0.00 0.00 0.00 0.00 0.00 0.00 0.00 0.00 0.00 0.00
0.00 0.00 0.00 0.00 0.01 0.00 0.00 0.00 0.00 0.00 0.00 0.00 0.00 0.00 0.00 0.00 0.00 0.01 0.01 0.00 0.00 0.00 0.00 0.00 0.00 0.00 0.00 0.00 0.00 0.00 0.00 0.00 0.00 0.00 0.00 0.00 0.00 0.00 0.00 0.00 0.00 0.00 0.00 0.00 0.00 0.00 0.00
0.00 0.00 0.00 0.00 0.00 0.01 0.00 0.00 0.00 0.00 0.00 0.00 0.00 0.00 0.00 0.00 0.00 0.00 0.00 0.00 0.00 0.00 0.00 0.00 0.00 0.00 0.00 0.00 0.00 0.00 0.00 0.00 0.00 0.00 0.00 0.00 0.00 0.00 0.00 0.00 0.00 0.00 0.00 0.00 0.00 0.00 0.00
0.00 0.00 0.00 0.00 0.00 0.00 0.01 0.00 0.00 0.00 0.00 0.00 0.00 0.00 0.00 0.00 0.00 0.00 0.00 0.00 0.00 0.00 0.00 0.00 0.00 0.00 0.00 0.00 0.00 0.00 0.00 0.00 0.00 0.00 0.00 0.00 0.00 0.00 0.00 0.00 0.00 0.00 0.00 0.00 0.00 0.00 0.00
0.00 0.00 0.00 0.00 0.00 0.00 0.00 0.00 0.00 0.00 0.00 0.00 0.00 0.00 0.00 0.00 0.00 0.00 0.00 0.00 0.00 0.00 0.00 0.00 0.00 0.00 0.00 0.00 0.00 0.00 0.00 0.00 0.00 0.00 0.00 0.00 0.00 0.00 0.00 0.00 0.00 0.00 0.00 0.00 0.00 0.00 0.00
0.00 0.00 0.00 0.00 0.00 0.00 0.00 0.00 0.00 0.00 0.00 0.00 0.00 0.00 0.00 0.00 0.00 0.00 0.00 0.00 0.00 0.00 0.00 0.00 0.00 0.00 0.00 0.00 0.00 0.00 0.00 0.00 0.00 0.00 0.00 0.00 0.00 0.00 0.00 0.00 0.00 0.00 0.00 0.00 0.00 0.00 0.00
0.00 0.00 0.00 0.00 0.00 0.00 0.00 0.00 0.00 0.00 0.00 0.00 0.00 0.00 0.00 0.00 0.00 0.00 0.00 0.00 0.00 0.00 0.00 0.00 0.00 0.00 0.00 0.00 0.00 0.00 0.00 0.00 0.00 0.00 0.00 0.00 0.00 0.00 0.00 0.00 0.00 0.00 0.00 0.00 0.00 0.00 0.00
0.00 0.00 0.00 0.00 0.00 0.00 0.00 0.00 0.00 0.00 0.00 0.00 0.00 0.00 0.00 0.00 0.00 0.00 0.00 0.00 0.00 0.00 0.00 0.00 0.00 0.00 0.00 0.00 0.00 0.00 0.00 0.00 0.00 0.00 0.00 0.00 0.00 0.00 0.00 0.00 0.00 0.00 0.00 0.00 0.00 0.00 0.00
0.00 0.00 0.00 0.00 0.00 0.00 0.00 0.00 0.00 0.00 0.00 0.00 0.00 0.00 0.00 0.00 0.00 0.00 0.00 0.00 0.00 0.00 0.00 0.00 0.00 0.00 0.00 0.00 0.00 0.00 0.00 0.00 0.00 0.00 0.00 0.00 0.00 0.00 0.00 0.00 0.00 0.00 0.00 0.00 0.00 0.00 0.00
0.00 0.00 0.00 0.00 0.00 0.00 0.00 0.00 0.00 0.00 0.00 0.00 0.00 0.00 0.00 0.00 0.00 0.00 0.00 0.00 0.00 0.00 0.00 0.00 0.00 0.00 0.00 0.00 0.00 0.00 0.00 0.00 0.00 0.00 0.00 0.00 0.00 0.00 0.00 0.00 0.00 0.00 0.00 0.00 0.00 0.00 0.00
0.00 0.00 0.00 0.00 0.00 0.00 0.00 0.00 0.00 0.00 0.00 0.00 0.00 0.00 0.00 0.00 0.00 0.00 0.00 0.00 0.00 0.00 0.00 0.00 0.00 0.00 0.00 0.00 0.00 0.00 0.00 0.00 0.00 0.00 0.00 0.00 0.00 0.00 0.00 0.00 0.00 0.00 0.00 0.00 0.00 0.00 0.00
0.00 0.00 0.00 0.00 0.00 0.00 0.00 0.00 0.00 0.00 0.00 0.00 0.00 0.00 0.00 0.00 0.00 0.00 0.00 0.00 0.00 0.00 0.00 0.00 0.00 0.00 0.00 0.00 0.00 0.00 0.00 0.00 0.00 0.00 0.00 0.00 0.00 0.00 0.00 0.00 0.00 0.00 0.00 0.00 0.00 0.00 0.00
0.00 0.00 0.00 0.00 0.00 0.00 0.00 0.00 0.00 0.00 0.00 0.00 0.00 0.00 0.00 0.00 0.00 0.00 0.00 0.00 0.00 0.00 0.00 0.00 0.00 0.00 0.00 0.00 0.00 0.00 0.00 0.00 0.00 0.00 0.00 0.00 0.00 0.00 0.00 0.00 0.00 0.00 0.00 0.00 0.00 0.00 0.00
0.00 0.00 0.00 0.00 0.00 0.00 0.00 0.00 0.00 0.00 0.00 0.00 0.00 0.00 0.00 0.00 0.00 0.00 0.00 0.00 0.00 0.00 0.00 0.00 0.00 0.00 0.00 0.00 0.00 0.00 0.00 0.00 0.00 0.00 0.00 0.00 0.00 0.00 0.00 0.00 0.00 0.00 0.00 0.00 0.00 0.00 0.00
0.00 0.00 0.00 0.00 0.00 0.00 0.00 0.00 0.00 0.00 0.00 0.00 0.00 0.00 0.00 0.00 0.00 0.00 0.00 0.00 0.00 0.00 0.00 0.00 0.00 0.00 0.00 0.00 0.00 0.00 0.00 0.00 0.00 0.00 0.00 0.00 0.00 0.00 0.00 0.00 0.00 0.00 0.00 0.00 0.00 0.00 0.00
0.00 0.00 0.00 0.00 0.00 0.00 0.00 0.00 0.00 0.00 0.00 0.00 0.00 0.00 0.00 0.00 0.00 0.00 0.00 0.00 0.00 0.00 0.00 0.00 0.00 0.00 0.00 0.00 0.00 0.00 0.00 0.00 0.00 0.00 0.00 0.00 0.00 0.00 0.00 0.00 0.00 0.00 0.00 0.00 0.00 0.00 0.00
0.00 0.00 0.00 0.00 0.00 0.00 0.00 0.00 0.00 0.00 0.00 0.00 0.00 0.00 0.00 0.00 0.00 0.00 0.00 0.00 0.00 0.00 0.00 0.00 0.00 0.00 0.00 0.00 0.00 0.00 0.00 0.00 0.00 0.00 0.00 0.00 0.00 0.00 0.00 0.00 0.00 0.00 0.00 0.00 0.00 0.00 0.00
0.00 0.00 0.00 0.00 0.00 0.00 0.00 0.00 0.00 0.00 0.00 0.00 0.00 0.00 0.00 0.00 0.00 0.00 0.00 0.00 0.00 0.00 0.00 0.00 0.00 0.00 0.00 0.00 0.00 0.00 0.00 0.00 0.00 0.00 0.00 0.00 0.00 0.00 0.00 0.00 0.00 0.00 0.00 0.00 0.00 0.00 0.00
0.00 0.00 0.00 0.00 0.00 0.00 0.00 0.00 0.00 0.00 0.00 0.00 0.00 0.00 0.00 0.00 0.00 0.00 0.00 0.00 0.00 0.00 0.00 0.00 0.00 0.00 0.00 0.00 0.00 0.00 0.00 0.00 0.00 0.00 0.00 0.00 0.00 0.00 0.00 0.00 0.00 0.00 0.00 0.00 0.00 0.00 0.00
0.00 0.00 0.00 0.00 0.00 0.00 0.00 0.00 0.00 0.00 0.00 0.00 0.00 0.00 0.00 0.00 0.00 0.00 0.00 0.00 0.00 0.00 0.00 0.00 0.00 0.00 0.00 0.00 0.00 0.00 0.00 0.00 0.00 0.00 0.00 0.00 0.00 0.00 0.00 0.00 0.00 0.00 0.00 0.00 0.00 0.00 0.00
0.00 0.00 0.00 0.00 0.00 0.00 0.00 0.00 0.00 0.00 0.00 0.00 0.00 0.00 0.00 0.00 0.00 0.00 0.00 0.00 0.00 0.00 0.00 0.00 0.00 0.00 0.00 0.00 0.00 0.00 0.00 0.00 0.00 0.00 0.00 0.00 0.00 0.00 0.00 0.00 0.00 0.00 0.00 0.00 0.00 0.00 0.00
0.00 0.00 0.00 0.00 0.00 0.00 0.00 0.00 0.00 0.00 0.00 0.00 0.00 0.00 0.00 0.00 0.00 0.00 0.00 0.00 0.00 0.00 0.00 0.00 0.00 0.00 0.00 0.00 0.00 0.00 0.00 0.00 0.00 0.00 0.00 0.00 0.00 0.00 0.00 0.00 0.00 0.00 0.00 0.00 0.00 0.00 0.00
0.00 0.00 0.00 0.00 0.00 0.00 0.00 0.00 0.00 0.00 0.00 0.00 0.00 0.00 0.00 0.00 0.00 0.00 0.00 0.00 0.00 0.00 0.00 0.00 0.00 0.00 0.00 0.00 0.00 0.00 0.00 0.00 0.00 0.00 0.00 0.00 0.00 0.00 0.00 0.00 0.00 0.00 0.00 0.00 0.00 0.00 0.00
0.00 0.00 0.00 0.00 0.00 0.00 0.00 0.00 0.00 0.00 0.00 0.00 0.00 0.00 0.00 0.00 0.00 0.00 0.00 0.00 0.00 0.00 0.00 0.00 0.00 0.00 0.00 0.00 0.00 0.00 0.00 0.00 0.00 0.00 0.00 0.00 0.00 0.00 0.00 0.00 0.00 0.00 0.00 0.00 0.00 0.00 0.00
0.00 0.00 0.00 0.00 0.00 0.00 0.00 0.00 0.00 0.00 0.00 0.00 0.00 0.00 0.00 0.00 0.00 0.00 0.00 0.00 0.00 0.00 0.00 0.00 0.00 0.00 0.00 0.00 0.00 0.00 0.00 0.00 0.00 0.00 0.00 0.00 0.00 0.00 0.00 0.00 0.00 0.00 0.00 0.00 0.00 0.00 0.00
MSLP
1021.32 1020.81 1020.23 1019.49 1018.99 1018.64 1018.08 1017.59 1017.21 1016.66 1016.03 1015.44 1014.86 1014.04 1013.31 1012.87 1012.47 1012.29 1012.21 1012.17 1011.89 1011.47 1010.56 1010.24 1011.06 1011.60 1012.23 1013.60 1014.89 1014.88 1014.25 1013.88 1013.60 1013.60 1013.68 1013.72 1014.24 1014.72 1015.30 1015.85 1016.14 1016.51 1016.69 1016.96 1017.27 1017.47 1017.56
1021.47 1021.15 1020.65 1019.84 1019.37 1018.84 1018.42 1018.04 1017.58 1017.15 1016.54 1015.79 1015.10 1014.28 1013.55 1012.72 1012.71 1012.64 1012.55 1012.36 1012.38 1012.24 1012.06 1011.96 1012.21 1012.60 1013.78 1014.84 1015.94 1015.49 1014.93 1014.25 1014.26 1014.02 1014.18 1014.33 1014.68 1014.95 1015.74 1016.39 1016.90 1017.25 1017.14 1017.37 1017.61 1017.78 1017.95
1021.79 1021.41 1020.97 1020.30 1019.73 1019.18 1018.74 1018.31 1017.97 1017.54 1016.93 1016.29 1015.69 1014.98 1014.49 1013.90 1013.19 1013.06 1012.84 1012.61 1012.64 1012.60 1013.10 1013.09 1013.48 1013.61 1014.94 1016.97 1016.46 1015.76 1015.40 1015.17 1014.75 1014.59 1014.88 1014.99 1014.85 1015.10 1016.12 1017.12 1017.43 1017.66 1017.75 1017.81 1017.91 1018.04 1018.34
1021.95 1021.67 1021.24 1020.66 1020.10 1019.62 1019.08 1018.58 1018.18 1017.81 1017.37 1016.81 1016.32 1015.81 1015.33 1014.92 1014.46 1014.05 1013.75 1013.48 1013.29 1013.22 1013.21 1013.37 1013.64 1013.29 1016.08 1017.10 1016.60 1016.10 1015.66 1015.17 1015.11 1015.03 1015.23 1015.27 1015.09 1015.89 1016.92 1017.61 1017.93 1018.21 1018.35 1018.43 1018.35 1018.32 1018.54
1022.33 1021.88 1021.49 1020.96 1020.54 1020.04 1019.55 1018.98 1018.43 1018.25 1017.70 1017.27 1016.85 1016.52 1016.11 1015.73 1015.52 1015.04 1014.51 1014.13 1013.93 1014.00 1014.00 1013.40 1013.49 1014.07 1017.44 1017.54 1017.17 1017.27 1016.68 1016.38 1015.96 1015.76 1015.69 1015.66 1015.91 1017.21 1017.84 1018.26 1018.72 1018.83 1018.88 1018.61 1018.58 1018.44 1018.55
1022.48 1022.19 1021.72 1021.24 1020.80 1020.32 1019.88 1019.40 1019.01 1018.54 1018.23 1017.91 1017.28 1016.83 1016.58 1016.22 1016.09 1015.48 1014.99 1014.66 1014.47 1014.24 1014.05 1014.55 1015.09 1016.22 1018.36 1018.58 1017.84 1017.66 1016.84 1016.71 1016.52 1016.41 1016.50 1016.61 1017.11 1017.98 1018.63 1018.99 1019.42 1019.12 1018.91 1018.63 1018.62 1018.74 1018.78
1022.61 1022.35 1022.00 1021.47 1021.06 1020.66 1020.19 1019.76 1019.42 1019.02 1018.52 1018.22 1017.89 1017.15 1016.72 1016.36 1016.00 1015.39 1015.27 1015.47 1015.52 1015.68 1015.02 1016.40 1017.51 1017.80 1018.50 1018.40 1018.09 1017.38 1016.78 1016.67 1016.77 1016.93 1017.32 1017.55 1018.34 1019.11 1019.66 1019.39 1019.09 1018.89 1018.89 1018.83 1018.63 1018.85 1018.97
1022.77 1022.49 1022.25 1021.82 1021.33 1020.95 1020.48 1020.00 1019.69 1019.33 1018.90 1018.45 1018.11 1017.64 1017.09 1016.72 1016.36 1015.89 1015.98 1016.90 1017.80 1018.11 1018.01 1018.14 1018.09 1017.95 1017.98 1017.88 1017.66 1017.44 1017.27 1017.36 1017.25 1017.64 1017.88 1018.62 1019.28 1019.50 1019.40 1019.19 1019.09 1019.08 1019.09 1019.19 1019.17 1019.12 1019.38
1022.98 1022.66 1022.41 1022.13 1021.62 1021.21 1020.73 1020.26 1019.91 1019.58 1019.18 1018.70 1018.27 1017.89 1017.46 1017.09 1016.85 1016.85 1017.53 1018.16 1018.15 1018.01 1018.21 1018.92 1018.87 1018.92 1018.78 1018.54 1018.63 1018.26 1017.91 1017.61 1017.88 1018.23 1018.36 1018.99 1019.73 1019.40 1019.24 1019.17 1019.21 1019.30 1019.29 1019.46 1019.69 1019.72 1019.56
1023.23 1022.82 1022.52 1022.23 1021.87 1021.44 1020.96 1020.41 1019.99 1019.66 1019.35 1018.81 1018.31 1017.90 1017.53 1017.28 1017.22 1017.43 1018.10 1018.20 1018.11 1018.08 1019.02 1020.26 1019.23 1019.10 1018.89 1018.74 1019.09 1018.69 1018.31 1018.38 1018.17 1018.80 1018.99 1019.61 1019.67 1019.42 1019.33 1019.16 1019.21 1019.44 1019.55 1019.67 1020.02 1020.61 1021.04
1023.41 1022.99 1022.67 1022.36 1022.06 1021.57 1021.10 1020.62 1020.07 1019.50 1019.23 1018.93 1018.40 1018.02 1017.60 1017.50 1018.17 1018.33 1018.77 1018.25 1018.14 1018.35 1020.05 1020.89 1019.84 1018.96 1018.83 1018.80 1019.19 1018.77 1018.46 1018.29 1018.72 1018.96 1019.25 1020.15 1019.82 1019.64 1019.42 1019.30 1019.28 1019.84 1019.78 1020.08 1020.60 1021.29 1021.92
1023.61 1023.17 1022.81 1022.49 1022.14 1021.64 1021.10 1020.65 1020.23 1019.61 1019.10 1018.93 1018.61 1018.09 1017.70 1017.87 1018.24 1018.55 1018.29 1018.25 1018.46 1019.38 1021.95 1021.32 1020.11 1019.30 1019.15 1018.96 1018.91 1018.82 1018.73 1018.62 1018.92 1019.07 1019.46 1019.91 1019.75 1019.75 1019.70 1019.45 1019.47 1019.63 1019.94 1020.39 1020.84 1021.73 1022.19
1023.83 1023.35 1022.96 1022.56 1022.19 1021.72 1021.27 1020.83 1020.34 1019.78 1019.24 1018.79 1018.66 1018.32 1017.86 1018.00 1018.44 1018.13 1018.20 1018.58 1019.25 1021.00 1022.42 1021.45 1020.22 1019.41 1019.12 1019.04 1018.99 1019.08 1019.26 1019.38 1019.77 1020.18 1020.70 1020.25 1020.07 1019.77 1019.61 1019.66 1019.52 1019.80 1020.31 1021.38 1021.79 1022.38 1021.79
1024.00 1023.57 1023.14 1022.75 1022.32 1021.80 1021.40 1020.94 1020.56 1020.05 1019.40 1018.93 1018.58 1018.37 1018.06 1017.90 1018.08 1017.91 1018.09 1019.00 1020.62 1021.90 1021.33 1020.54 1019.95 1019.53 1019.40 1019.35 1019.07 1019.10 1019.33 1019.96 1020.19 1020.24 1020.68 1020.92 1020.54 1019.98 1019.72 1019.61 1019.41 1019.92 1020.71 1021.57 1022.46 1022.60 1021.84
1024.05 1023.66 1023.27 1022.92 1022.52 1022.02 1021.50 1020.94 1020.48 1020.06 1019.59 1019.00 1018.60 1018.44 1018.32 1017.93 1017.57 1017.71 1018.49 1019.80 1021.83 1021.46 1020.86 1020.37 1019.77 1019.41 1019.20 1019.01 1018.86 1018.71 1019.30 1019.96 1020.30 1020.38 1020.71 1020.50 1020.22 1019.77 1019.68 1019.48 1019.80 1020.25 1020.89 1021.35 1022.16 1022.40 1022.14
1024.07 1023.68 1023.30 1022.98 1022.58 1022.11 1021.55 1021.04 1020.41 1019.78 1019.51 1019.21 1019.20 1018.83 1018.25 1017.68 1017.67 1017.87 1019.28 1020.88 1021.32 1020.83 1020.45 1020.18 1019.77 1019.31 1019.12 1019.00 1018.83 1018.68 1019.13 1019.51 1020.02 1020.42 1020.45 1020.58 1020.26 1019.66 1019.66 1019.59 1019.84 1020.20 1021.00 1021.65 1022.30 1022.56 1021.80
1024.24 1023.78 1023.39 1023.03 1022.67 1022.19 1021.64 1021.05 1020.41 1019.74 1019.07 1019.01 1019.51 1019.05 1017.82 1017.56 1017.92 1018.53 1020.55 1021.19 1021.07 1020.61 1020.33 1020.08 1019.74 1019.33 1019.22 1019.02 1018.81 1018.69 1019.16 1019.56 1019.69 1020.36 1020.58 1020.79 1020.68 1020.33 1020.05 1019.76 1019.50 1020.28 1020.75 1021.50 1022.00 1022.23 1022.04
1024.41 1024.04 1023.60 1023.22 1022.81 1022.28 1021.76 1021.08 1020.42 1019.75 1019.00 1018.72 1019.64 1019.69 1018.10 1017.77 1018.61 1019.95 1021.00 1020.60 1020.47 1020.40 1020.09 1019.78 1019.57 1019.23 1019.11 1019.03 1019.14 1019.13 1019.31 1019.40 1019.53 1019.86 1020.27 1020.36 1020.66 1020.59 1019.79 1018.69 1018.52 1019.13 1019.84 1020.60 1021.39 1021.53 1021.28
1024.47 1024.12 1023.76 1023.49 1023.18 1022.64 1022.06 1021.38 1020.60 1019.97 1019.70 1019.98 1020.11 1019.72 1018.18 1018.23 1019.64 1020.91 1020.72 1020.55 1020.32 1019.98 1019.73 1019.62 1019.39 1019.26 1018.98 1018.90 1018.94 1018.74 1018.89 1019.10 1019.35 1019.77 1020.08 1020.42 1020.66 1020.71 1020.04 1019.62 1018.93 1019.02 1019.38 1019.79 1020.42 1020.73 1020.51
1024.53 1024.17 1023.80 1023.52 1023.25 1022.83 1022.28 1021.69 1020.95 1020.22 1019.84 1020.16 1020.42 1020.43 1019.68 1019.55 1020.25 1020.56 1020.72 1020.51 1020.27 1020.02 1019.83 1019.53 1019.30 1019.14 1019.12 1018.99 1018.88 1018.92 1018.93 1019.09 1019.15 1019.45 1019.85 1020.26 1020.68 1020.79 1020.13 1019.11 1018.80 1018.82 1018.67 1019.13 1019.55 1020.10 1018.99
1024.41 1024.21 1023.95 1023.64 1023.34 1023.00 1022.58 1021.92 1021.19 1020.39 1019.71 1020.21 1021.03 1021.80 1021.48 1021.16 1021.06 1020.81 1020.50 1020.41 1020.11 1019.85 1019.74 1019.48 1019.33 1019.20 1019.08 1019.12 1019.11 1019.16 1018.99 1019.06 1019.44 1019.63 1020.08 1020.60 1020.93 1020.62 1019.97 1019.11 1018.66 1018.12 1017.95 1018.24 1018.40 1017.81 1017.76
1024.23 1024.19 1023.97 1023.67 1023.41 1023.10 1022.74 1022.31 1021.55 1020.66 1019.69 1020.64 1022.04 1022.26 1021.87 1021.53 1021.05 1020.84 1020.78 1020.20 1019.90 1019.71 1019.51 1019.34 1019.37 1019.23 1019.24 1019.21 1019.07 1019.24 1019.37 1019.51 1019.45 1019.93 1020.21 1020.40 1020.80 1020.73 1019.91 1018.58 1018.15 1017.41 1016.49 1016.48 1016.63 1016.37 1015.76
1024.07 1023.91 1023.96 1023.71 1023.43 1023.22 1022.92 1022.58 1022.10 1021.27 1020.51 1021.53 1022.23 1022.27 1022.34 1021.90 1021.21 1020.87 1020.39 1020.17 1019.95 1019.62 1019.43 1019.30 1019.36 1019.53 1019.40 1019.26 1019.30 1019.09 1019.05 1019.15 1019.43 1020.02 1020.29 1020.59 1020.97 1021.26 1020.24 1019.01 1017.95 1016.22 1013.76 1014.09 1014.20 1013.64 1013.49
1024.12 1023.82 1023.68 1023.56 1023.45 1023.26 1023.06 1022.86 1022.57 1022.12 1021.89 1022.55 1022.91 1022.88 1022.80 1022.54 1021.88 1020.90 1020.08 1019.69 1019.76 1019.99 1019.94 1019.60 1019.64 1019.75 1019.38 1019.20 1018.92 1018.55 1018.82 1018.84 1019.04 1019.30 1019.84 1020.33 1021.05 1021.59 1021.02 1019.95 1017.72 1014.02 1012.99 1012.82 1012.82 1012.35 1011.92
1023.91 1023.82 1023.63 1023.48 1023.39 1023.35 1023.20 1023.00 1022.89 1022.50 1022.46 1022.80 1023.13 1023.29 1023.23 1022.75 1021.83 1020.92 1020.38 1020.04 1019.74 1019.57 1019.80 1019.78 1019.62 1019.58 1019.55 1019.54 1019.63 1019.05 1018.77 1018.84 1018.61 1018.97 1019.41 1019.92 1020.82 1021.44 1021.18 1020.13 1016.70 1013.56 1012.88 1012.76 1012.60 1011.70 1011.09
1023.59 1023.53 1023.37 1023.33 1023.24 1023.13 1023.22 1023.19 1023.06 1022.92 1022.48 1023.01 1023.35 1023.42 1023.64 1023.49 1021.96 1020.99 1020.58 1020.18 1020.27 1020.07 1019.88 1019.33 1019.28 1019.36 1019.64 1020.08 1020.34 1020.36 1019.79 1018.73 1018.72 1019.06 1019.14 1019.82 1020.35 1021.30 1021.05 1020.07 1017.15 1013.49 1012.48 1012.16 1012.23 1011.86 1011.06
1023.03 1023.11 1023.10 1023.11 1023.06 1022.98 1022.94 1023.05 1023.04 1023.04 1022.99 1023.00 1023.48 1023.37 1023.63 1023.90 1021.88 1021.13 1020.76 1020.41 1020.05 1020.28 1020.32 1019.83 1019.61 1019.74 1019.92 1020.58 1020.92 1020.75 1019.91 1018.90 1018.88 1018.83 1019.40 1019.93 1020.32 1020.29 1020.42 1019.48 1015.87 1012.61 1012.09 1012.09 1012.34 1011.41 1010.64
1022.61 1022.64 1022.66 1022.64 1022.74 1022.72 1022.70 1022.69 1022.81 1022.77 1023.05 1023.19 1023.41 1023.43 1023.55 1023.71 1022.18 1021.09 1020.79 1020.52 1020.25 1020.11 1020.32 1020.27 1020.40 1020.50 1020.80 1021.23 1021.36 1020.70 1020.03 1019.00 1018.93 1018.46 1018.37 1018.77 1019.22 1019.44 1019.26 1018.30 1014.89 1011.76 1012.18 1011.87 1010.60 1010.43 1010.47
1021.82 1022.05 1022.16 1022.14 1022.19 1022.33 1022.25 1022.37 1022.38 1022.46 1022.67 1023.03 1023.47 1023.28 1023.40 1023.71 1022.16 1021.20 1020.59 1020.05 1020.05 1019.93 1019.78 1019.94 1020.00 1020.07 1020.49 1021.39 1021.41 1021.03 1020.56 1019.71 1019.15 1018.65 1017.15 1017.35 1016.42 1016.46 1016.17 1013.76 1011.53 1010.90 1010.14 1009.94 1010.09 1010.25 1010.34
Thickness
5576 5567 5556 5546 5532 5516 5504 5493 5484 5477 5475 5474 5475 5478 5482 5481 5481 5482 5482 5482 5486 5491 5505 5511 5511 5518 5521 5518 5515 5522 5534 5548 5562 5574 5584 5592 5596 5602 5599 5604 5611 5612 5618 5620 5620 5624 5627
5575 5565 5555 5545 5532 5520 5507 5497 5491 5486 5483 5483 5484 5486 5487 5490 5486 5484 5484 5485 5486 5487 5488 5499 5507 5514 5513 5512 5507 5517 5528 5543 5554 5568 5576 5585 5591 5597 5597 5597 5598 5604 5610 5612 5615 5617 5620
5575 5565 5556 5545 5535 5522 5511 5502 5495 5491 5489 5488 5488 5487 5485 5484 5485 5482 5483 5487 5487 5489 5481 5487 5494 5505 5503 5498 5506 5518 5526 5537 5550 5563 5567 5578 5589 5593 5592 5586 5594 5596 5600 5602 5608 5611 5610
5576 5566 5557 5548 5539 5527 5516 5507 5500 5494 5493 5492 5489 5486 5485 5481 5477 5476 5477 5480 5483 5484 5488 5487 5493 5508 5492 5494 5505 5517 5528 5539 5546 5555 5563 5572 5582 5581 5579 5582 5585 5587 5588 5584 5599 5603 5604
5575 5568 5559 5551 5541 5531 5521 5512 5505 5497 5496 5495 5492 5489 5484 5479 5473 5473 5476 5478 5478 5479 5484 5496 5501 5508 5488 5494 5505 5513 5522 5530 5541 5549 5557 5567 5572 5567 5572 5570 5563 5577 5563 5589 5588 5598 5599
5577 5570 5563 5554 5545 5537 5527 5518 5508 5504 5499 5496 5496 5493 5490 5485 5479 5479 5480 5482 5483 5488 5495 5495 5500 5499 5488 5491 5506 5512 5523 5530 5537 5544 5548 5554 5555 5549 5551 5549 5545 5568 5563 5587 5585 5587 5590
5580 5573 5566 5559 5550 5542 5533 5524 5514 5507 5503 5500 5497 5498 5497 5494 5493 5491 5487 5487 5492 5494 5500 5492 5487 5491 5494 5500 5508 5518 5529 5533 5537 5541 5538 5547 5535 5523 5541 5557 5566 5572 5573 5577 5583 5583 5583
5584 5576 5569 5562 5555 5547 5540 5532 5523 5514 5509 5505 5501 5501 5501 5501 5500 5500 5497 5491 5482 5486 5489 5490 5495 5501 5507 5512 5518 5521 5529 5531 5535 5533 5543 5534 5526 5543 5551 5556 5561 5565 5566 5567 5572 5579 5578
5587 5581 5574 5566 5560 5553 5546 5540 5532 5523 5516 5512 5509 5505 5505 5505 5506 5503 5497 5490 5491 5493 5491 5492 5497 5497 5504 5511 5508 5512 5521 5530 5532 5534 5536 5528 5538 5548 5552 5553 5556 5559 5562 5561 5562 5564 5573
5590 5585 5579 5572 5565 5560 5554 5548 5541 5534 5526 5521 5516 5512 5510 5511 5511 5509 5502 5500 5500 5501 5475 5477 5493 5498 5505 5510 5505 5515 5521 5526 5533 5528 5534 5530 5539 5545 5546 5552 5555 5555 5558 5561 5562 5543 5528
5595 5590 5583 5577 5572 5566 5561 5556 5551 5546 5539 5533 5528 5522 5518 5517 5511 5508 5507 5509 5509 5506 5477 5484 5493 5506 5508 5510 5510 5514 5523 5529 5526 5534 5534 5530 5535 5539 5545 5549 5554 5547 5555 5555 5555 5549 5515
5597 5593 5588 5582 5577 5573 5569 5564 5559 5556 5552 5546 5540 5536 5531 5526 5524 5520 5520 5520 5515 5481 5455 5484 5499 5505 5510 5514 5516 5520 5524 5531 5533 5539 5538 5536 5541 5541 5542 5549 5551 5553 5551 5550 5552 5539 5538
5600 5596 5592 5587 5582 5578 5573 5570 5568 5565 5562 5558 5552 5547 5544 5538 5533 5533 5531 5526 5497 5484 5492 5496 5505 5516 5520 5521 5523 5525 5524 5521 5516 5494 5520 5533 5537 5542 5545 5542 5549 5548 5543 5499 5527 5535 5514
5601 5599 5595 5591 5587 5583 5579 5575 5574 5572 5571 5569 5565 5559 5556 5550 5545 5545 5541 5517 5494 5500 5510 5519 5522 5523 5518 5520 5529 5529 5531 5523 5527 5531 5525 5481 5502 5536 5541 5543 5547 5548 5536 5534 5496 5540 5521
5602 5601 5599 5594 5591 5587 5584 5582 5580 5579 5578 5577 5575 5570 5567 5565 5559 5555 5541 5506 5483 5521 5524 5525 5529 5530 5529 5533 5537 5541 5533 5525 5532 5532 5530 5531 5537 5542 5542 5546 5543 5536 5534 5538 5505 5511 5540
5603 5602 5600 5597 5594 5592 5590 5587 5586 5586 5585 5583 5579 5578 5577 5577 5571 5562 5539 5527 5526 5534 5532 5530 5531 5537 5535 5537 5541 5542 5539 5541 5535 5533 5535 5535 5536 5545 5543 5545 5543 5541 5535 5525 5522 5531 5529
5602 5601 5601 5599 5596 5595 5594 5593 5592 5593 5593 5590 5582 5578 5590 5587 5579 5565 5536 5538 5543 5543 5540 5537 5536 5545 5543 5544 5548 5548 5543 5541 5542 5534 5535 5533 5535 5539 5540 5537 5540 5536 5536 5526 5526 5520 5536
5600 5600 5600 5599 5597 5596 5596 5597 5597 5597 5599 5597 5586 5565 5591 5591 5567 5551 5547 5560 5555 5553 5551 5551 5549 5552 5549 5548 5544 5545 5544 5545 5547 5543 5539 5540 5533 5512 5539 5555 5555 5547 5543 5532 5524 5539 5536
5598 5598 5599 5597 5595 5595 5595 5596 5598 5599 5598 5591 5587 5573 5595 5590 5557 5544 5568 5567 5564 5563 5563 5561 5560 5560 5560 5557 5553 5559 5557 5554 5553 5548 5545 5543 5534 5502 5538 5546 5556 5554 5548 5545 5541 5536 5526
5595 5596 5597 5596 5594 5593 5593 5594 5596 5599 5599 5594 5590 5572 5581 5581 5571 5572 5573 5571 5568 5566 5565 5566 5566 5566 5563 5561 5561 5559 5561 5558 5558 5557 5554 5550 5541 5538 5532 5555 5558 5554 5557 5547 5541 5520 5535
5592 5592 5593 5592 5591 5591 5591 5592 5595 5598 5600 5595 5585 5571 5574 5560 5573 5578 5577 5573 5573 5572 5569 5571 5569 5569 5569 5563 5562 5562 5565 5564 5558 5557 5553 5546 5534 5538 5549 5557 5559 5562 5562 5555 5544 5554 5547
5590 5588 5589 5589 5588 5588 5588 5589 5591 5596 5600 5588 5580 5577 5573 5573 5580 5581 5570 5576 5577 5575 5574 5574 5571 5572 5571 5568 5570 5564 5564 5561 5562 5553 5553 5547 5536 5547 5534 5561 5560 5557 5564 5564 5564 5563 5562
5584 5585 5584 5585 5585 5584 5585 5585 5585 5589 5594 5581 5575 5573 5572 5571 5579 5572 5571 5580 5578 5576 5577 5575 5572 5568 5567 5569 5566 5567 5565 5563 5560 5558 5552 5545 5534 5526 5532 5545 5548 5556 5573 5580 5577 5579 5577
5575 5578 5579 5580 5580 5581 5580 5580 5580 5580 5580 5574 5569 5567 5567 5570 5569 5577 5586 5585 5580 5574 5570 5572 5569 5565 5570 5568 5567 5569 5559 5559 5555 5552 5550 5548 5539 5524 5520 5526 5520 5588 5595 5591 5584 5586 5584
5568 5568 5571 5573 5574 5575 5575 5575 5574 5574 5572 5568 5565 5563 5560 5563 5569 5577 5583 5580 5579 5578 5570 5567 5568 5566 5562 5564 5556 5559 5563 5571 5568 5555 5547 5546 5539 5520 5517 5511 5562 5586 5587 5582 5580 5585 5588
5562 5563 5563 5564 5565 5567 5567 5568 5567 5568 5568 5563 5557 5557 5552 5551 5563 5576 5572 5577 5565 5565 5566 5570 5570 5565 5564 5553 5554 5558 5557 5572 5571 5558 5554 5544 5540 5524 5516 5518 5555 5584 5589 5588 5582 5561 5583
5555 5555 5556 5557 5557 5559 5559 5558 5559 5558 5559 5559 5552 5551 5546 5542 5557 5569 5561 5565 5568 5564 5558 5566 5567 5562 5558 5542 5543 5543 5536 5570 5563 5565 5534 5530 5535 5532 5530 5521 5550 5583 5586 5584 5572 5579 5582
5545 5547 5548 5549 5549 5551 5552 5552 5551 5552 5549 5550 5548 5546 5543 5535 5546 5562 5563 5560 5558 5556 5555 5557 5555 5548 5539 5539 5535 5540 5543 5556 5555 5556 5543 5534 5516 5509 5508 5506 5537 5585 5581 5578 5585 5585 5580
5537 5535 5537 5540 5541 5542 5545 5545 5546 5544 5543 5541 5538 5540 5537 5532 5543 5549 5554 5560 5558 5556 5551 5550 5551 5548 5540 5520 5529 5527 5535 5534 5537 5539 5560 5546 5554 5549 5545 5560 5582 5582 5592 5588 5582 5579 5574